DW8871 Weather Reports


time (UTC)temp
C
wind
direction
speed
KPH
gust
KPH
rain 1hr
cm
rain 24hr
cm
rain mn
cm
humidity
%
barometer
mb
20260906174539 34 0 0.0 6.4 0.00 0.00 0.00 54 1015.3
20260906173039 33 214 1.6 6.4 0.00 0.00 0.00 57 1015.6
20260906171537 33 0 3.2 9.7 0.00 0.00 0.00 59 1015.8
20260906170035 33 289 1.6 11.3 0.00 0.00 0.00 61 1016.0
20260906170027 33 289 3.2 6.4 0.00 0.00 0.00 61 1014.9
20260906164536 33 0 1.6 6.4 0.00 0.00 0.00 61 1016.0
20260906163050 32 281 4.8 9.7 0.00 0.00 0.00 60 1016.3
20260906161536 33 207 1.6 6.4 0.00 0.00 0.00 61 1016.3
20260906160036 33 101 1.6 9.7 0.00 0.00 0.00 60 1015.1
20260906154533 32 159 3.2 9.7 0.00 0.00 0.00 64 1016.1
20260906153042 31 181 3.2 6.4 0.00 0.00 0.00 68 1016.0
20260906151535 30 0 1.6 6.4 0.00 0.00 0.00 71 1016.0
20260906150042 30 133 1.6 6.4 0.00 0.00 0.00 72 1014.8
20260906150035 30 119 0.0 6.4 0.00 0.00 0.00 71 1015.9
20260906144538 30 112 0.0 6.4 0.00 0.00 0.00 73 1016.1
20260906143042 28 178 0.0 6.4 0.00 0.00 0.00 75 1016.1
20260906141532 28 146 1.6 6.4 0.00 0.00 0.00 78 1016.2
20260906140042 26 92 1.6 6.4 0.00 0.00 0.00 84 1016.1
20260906140019 27 92 3.2 4.8 0.00 0.00 0.00 84 1015.0
20260906134537 25 188 1.6 6.4 0.00 0.00 0.00 90 1016.1
20260906133034 24 128 0.0 6.4 0.00 0.00 0.00 92 1016.1
20260906131534 23 74 1.6 8.0 0.00 0.00 0.00 94 1015.8
20260906130040 23 74 0.0 3.2 0.00 0.00 0.00 95 1015.7
20260906130031 23 74 0.0 3.2 0.00 0.00 0.00 95 1014.5
20260906124538 22 55 0.0 1.6 0.00 0.00 0.00 95 1015.6
20260906123033 22 0 0.0 1.6 0.00 0.00 0.00 94 1015.3
20260906121535 22 0 0.0 1.6 0.00 0.00 0.00 94 1015.2
20260906120034 22 0 0.0 1.6 0.00 0.00 0.00 94 1015.0
20260906120021 22 286 0.0 0.0 0.00 0.00 0.00 94 1013.9
20260906114536 22 0 0.0 1.6 0.00 0.00 0.00 94 1014.8
20260906113036 22 0 0.0 0.0 0.00 0.00 0.00 94 1014.6
20260906111535 22 0 0.0 0.0 0.00 0.00 0.00 93 1014.5
20260906110033 22 0 0.0 0.0 0.00 0.00 0.00 94 1014.5
20260906110018 22 286 0.0 0.0 0.00 0.00 0.00 94 1013.4
20260906104538 22 0 0.0 0.0 0.00 0.00 0.00 94 1014.4
20260906103035 22 0 0.0 1.6 0.00 0.00 0.00 93 1014.4
20260906101539 22 0 0.0 1.6 0.00 0.00 0.00 93 1014.5
20260906100035 22 0 0.0 0.0 0.00 0.00 0.00 93 1014.5
20260906100031 22 286 0.0 0.0 0.00 0.00 0.00 94 1013.4
20260906094536 22 0 0.0 1.6 0.00 0.00 0.00 93 1014.3
20260906093046 22 0 0.0 0.0 0.00 0.00 0.00 93 1014.2
20260906091536 22 0 0.0 0.0 0.00 0.00 0.00 93 1014.0
20260906090037 22 0 0.0 0.0 0.00 0.00 0.00 93 1014.1
20260906090018 23 286 0.0 0.0 0.00 0.00 0.00 93 1013.0
20260906084542 22 0 0.0 0.0 0.00 0.00 0.00 92 1014.1
20260906083038 23 0 0.0 0.0 0.00 0.00 0.00 92 1013.8
20260906081535 23 0 0.0 0.0 0.00 0.00 0.00 92 1013.8
20260906080044 23 0 0.0 1.6 0.00 0.00 0.00 92 1013.8
20260906080032 23 286 0.0 1.6 0.00 0.00 0.00 92 1012.8
20260906074534 23 0 0.0 0.0 0.00 0.00 0.00 91 1013.8
20260906073036 23 0 0.0 0.0 0.00 0.00 0.00 91 1013.7
20260906071535 23 0 0.0 0.0 0.00 0.00 0.00 90 1013.8
20260906070039 23 0 0.0 0.0 0.00 0.00 0.00 90 1013.9
20260906070029 23 285 0.0 0.0 0.00 0.00 0.00 91 1012.9
20260906064537 23 0 0.0 0.0 0.00 0.00 0.00 90 1014.0
20260906063033 23 0 0.0 0.0 0.00 0.00 0.00 90 1014.1
20260906061539 23 0 0.0 0.0 0.00 0.00 0.00 90 1014.1
20260906060045 24 0 0.0 0.0 0.00 0.00 0.00 90 1014.1
20260906060026 24 285 0.0 0.0 0.00 0.00 0.00 90 1013.1
20260906054535 24 0 0.0 0.0 0.00 0.00 0.00 90 1014.2
20260906053038 24 0 0.0 0.0 0.00 0.00 0.00 89 1014.2
20260906051537 24 0 0.0 0.0 0.00 0.00 0.00 88 1014.3
20260906050035 25 0 0.0 0.0 0.00 0.00 0.00 88 1014.2
20260906050016 25 285 0.0 0.0 0.00 0.00 0.00 88 1013.2
20260906044536 25 0 0.0 0.0 0.00 0.00 0.00 87 1014.2
20260906043036 25 0 0.0 0.0 0.00 0.00 0.00 86 1014.1
20260906041541 25 0 0.0 0.0 0.00 0.00 0.00 85 1014.1
20260906040043 25 0 0.0 0.0 0.00 0.00 0.00 85 1014.0
20260906040026 26 285 0.0 0.0 0.00 0.00 0.00 85 1012.9
20260906034535 26 0 0.0 0.0 0.00 0.00 0.00 84 1013.9
20260906033037 26 0 0.0 0.0 0.00 0.00 0.00 82 1013.7
20260906031534 27 0 0.0 3.2 0.00 0.00 0.00 81 1013.6
20260906030036 27 0 0.0 3.2 0.00 0.00 0.00 78 1013.6
20260906030018 27 288 0.0 3.2 0.00 0.00 0.00 78 1012.3
20260906024536 28 0 0.0 0.0 0.00 0.00 0.00 75 1013.4
20260906023043 29 0 0.0 1.6 0.00 0.00 0.00 71 1013.2
20260906021534 29 0 0.0 1.6 0.00 0.00 0.00 69 1013.1
20260906020038 30 0 0.0 1.6 0.00 0.00 0.00 69 1012.8
20260906020035 30 80 0.0 1.6 0.00 0.00 0.00 69 1011.7
20260906014544 30 0 0.0 0.0 0.00 0.00 0.00 69 1012.6
20260906013036 30 0 0.0 1.6 0.00 0.00 0.00 68 1012.5
20260906011535 30 0 0.0 0.0 0.00 0.00 0.00 65 1012.4
20260906010036 31 0 0.0 1.6 0.00 0.00 0.00 65 1012.2
20260906010024 31 140 0.0 1.6 0.00 0.00 0.00 66 1011.2
20260906004535 31 0 0.0 1.6 0.00 0.00 0.00 64 1012.3
20260906003037 32 0 0.0 0.0 0.00 0.00 0.00 63 1012.3
20260906001533 32 0 0.0 1.6 0.00 0.00 0.00 67 1012.3
20260906000041 33 101 0.0 0.0 0.00 0.00 0.00 64 1011.2
20260906000035 33 0 0.0 3.2 0.00 0.00 0.00 63 1012.3
20260905234537 33 0 0.0 0.0 0.00 0.00 0.00 61 1012.2
20260905233047 35 0 0.0 0.0 0.00 0.00 0.00 62 1012.2
20260905231548 36 0 0.0 4.8 0.00 0.00 0.00 51 1012.1
20260905230039 37 0 0.0 4.8 0.00 0.00 0.00 45 1012.0
20260905230034 37 170 0.0 4.8 0.00 0.00 0.00 46 1011.0
20260905224547 37 0 0.0 4.8 0.00 0.00 0.00 45 1012.1
20260905223034 36 219 1.6 8.0 0.00 0.00 0.00 45 1012.1
20260905221539 37 138 0.0 6.4 0.00 0.00 0.00 45 1012.1
20260905220035 37 0 0.0 8.0 0.00 0.00 0.00 45 1012.3
20260905220030 37 163 1.6 8.0 0.00 0.00 0.00 45 1011.2
20260905214532 36 240 1.6 12.9 0.00 0.00 0.00 45 1012.5
20260905213038 37 0 0.0 8.0 0.00 0.00 0.00 46 1012.8
20260905211536 37 77 0.0 4.8 0.00 0.00 0.00 47 1013.0
20260905210034 36 76 1.6 6.4 0.00 0.00 0.00 48 1013.2
20260905210018 37 76 1.6 6.4 0.00 0.00 0.00 49 1012.0
20260905204535 37 58 0.0 11.3 0.00 0.00 0.00 48 1013.3
20260905203038 36 64 1.6 9.7 0.00 0.00 0.00 49 1013.4
20260905201534 36 0 0.0 4.8 0.00 0.00 0.00 50 1013.7
20260905200036 36 0 0.0 8.0 0.00 0.00 0.00 43 1013.9
20260905200032 36 348 0.0 4.8 0.00 0.00 0.00 44 1012.8
20260905194537 36 257 3.2 12.9 0.00 0.00 0.00 43 1014.0
20260905193037 36 0 0.0 12.9 0.00 0.00 0.00 46 1014.0
20260905191536 36 281 3.2 9.7 0.00 0.00 0.00 47 1014.1
20260905190050 35 321 1.6 14.5 0.00 0.00 0.00 46 1014.3
20260905190031 36 322 1.6 12.9 0.00 0.00 0.00 46 1013.0
20260905184546 35 302 3.2 9.7 0.00 0.00 0.00 49 1014.4
20260905183039 36 0 3.2 8.0 0.00 0.00 0.00 45 1014.6
20260905181535 35 0 0.0 11.3 0.00 0.00 0.00 49 1014.7
20260905180035 35 0 1.6 9.7 0.00 0.00 0.00 49 1015.1
20260905180018 35 105 1.6 8.0 0.00 0.00 0.00 49 1013.9